Regional Weather Roundup
Issued by NWS

Home | Current Version | Previous Version | Text Only | Print | Product List | Glossary On
Versions: 1 2 3 4 5 6 7 8 9 10 11 12 13 14 15 16 17 18 19 20 21 22 23 24 25 26 27 28 29 30 31 32 33 34 35 36 37 38 39 40 41 42 43 44 45 46 47 48 49 50
825
ASUS44 KLIX 190110
RWRLA
LOUISIANA WEATHER ROUNDUP
NATIONAL WEATHER SERVICE NEW ORLEANS LA
800 PM CDT FRI APR 18 2014

NOTE: "FAIR" INDICATES FEW OR NO CLOUDS BELOW 12,000 FEET WITH NO
      SIGNIFICANT WEATHER AND/OR OBSTRUCTIONS TO VISIBILITY.
      SKY/WX - SKY CONDITION AND SIGNIFICANT WEATHER.
      TMP - AIR TEMPERATURE.    DP   - DEWPOINT TEMPERATURE.
      RH  - RELATIVE HUMIDITY.  PRES - PRESSURE.
      HX  - HEAT INDEX.         WCI  - WIND CHILL INDEX.

*  THESE STATIONS ARE NOT NWS OR FAA STATIONS AND ARE NOT UNDER
   NWS QUALITY CONTROL.

LAZ040-048-061>063-065-066-069-190200-
SOUTHEAST LOUISIANA

CITY           SKY/WX    TMP DP  RH WIND       PRES   REMARKS
N.O. AUDUBON     N/A     67  56  66 MISG        N/A
N.O. INTL ARPT PTCLDY    65  57  75 NE12      30.08R
N.O. LAKEFRONT CLEAR     65  58  78 NE21      30.09R
N.O. DOWNTOWN* FAIR      66  52  59 NE8       30.08R
SLIDELL        CLEAR     62  54  74 N7        30.08R
BATON ROUGE    CLEAR     65  60  84 CALM      30.08R
BOOTHVILLE     CLEAR     63  57  81 N9G18     30.07R
BELLE CHASSE   PTCLDY    63  55  75 NE9       30.07R
BOGALUSA*        N/A     64  55  71 NE5       30.11R
GALLIANO*      CLEAR     67  58  72 N10G16    30.07R
NEW ROADS*     FAIR      64  62  91 W9        30.09R
GONZALES*      FAIR      67  58  72 CALM      30.07R
HAMMOND*       CLEAR     66  55  68 NE3       30.10R
HOUMA*           N/A     67  56  66 NE7       30.07R
PORT FOURCHON* CLEAR     66  59  77 NE16G24   30.07S

$$

LAZ041-044-053-054-190200-
SOUTHWEST LOUISIANA

CITY           SKY/WX    TMP DP  RH WIND       PRES   REMARKS
LAKE CHARLES   CLEAR     67  57  70 N6        30.09R
LAFAYETTE      CLEAR     69  59  70 N7        30.08R
PATTERSON      PTCLDY    70  61  73 NE8       30.10R
SALT POINT       N/A     72  62  71 CALM      30.06R
NEW IBERIA     CLEAR     69  59  70 N5        30.08R
CHENAULT AIRPK NOT AVBL

$$

LAZ027-028-190200-
CENTRAL LOUISIANA

CITY           SKY/WX    TMP DP  RH WIND       PRES   REMARKS
FORT POLK      CLOUDY    66  56  70 N5        30.11S
ALEXANDRIA INT CLOUDY    68  57  68 N3        30.09R
ALEXANDRIA     MOCLDY    65  58  78 NW3       30.11R

$$

LAZ001-002-190200-
NORTHWEST LOUISIANA

CITY           SKY/WX    TMP DP  RH WIND       PRES   REMARKS
SHREVEPORT     PTCLDY    65  51  60 E5        30.13R
BARKSDALE AFB  CLOUDY    68  52  56 E2        30.14R
DTN SHREVEPORT PTCLDY    67  51  56 CALM      30.14R

$$

LAZ014-016-190200-
NORTHEAST LOUISIANA

CITY           SKY/WX    TMP DP  RH WIND       PRES   REMARKS
MONROE         PTCLDY    65  55  70 CALM      30.13R
TALLULAH       CLEAR     68  57  68 E6        30.11R

$$




USA.gov is the U.S. government's official web portal to all federal, state and local government web resources and services.